Taivalkoski, Suomi

24. helmikuuta 2019 klo 08:12 (EET) (GMT +0200)
Kuusamo | | Change Station

Kork 863 ft 65.97 °N, 29.18 °E | Updated 22 minutes ago

Jääkuulia
Jääkuulia
19 °F
Tuntuu kuin 19 °F
N
2
Tuuli Suunnaltaan vaihteleva Tuuli ilmansuunnasta Kaakko

Tänään
Korkea -- | Matala -- °F
--% Sateen mahd.
Eilen
Korkea -- | Matala -- °F
Precip. -- tuumaa
Ilmanpaine 29.80 tuumaa
Näkyvyys 6.2 mailia
Pilviä Pilvistä 300 ft
Kastepiste 18 °F
Ilmankosteus 93%
Sademäärä 0.00 tuumaa
Lumensyvyys Ei saatavilla
7:38 AM 5:03 PM
Vähenevä kupera kuu, 73% visible
METAR EFKS 240550Z AUTO 13002KT 9999 BKN003 M07/M08 Q1009
Ilmanpaine 29.80 tuumaa
Näkyvyys 6.2 mailia
Pilviä Pilvistä 300 ft
Kastepiste 18 °F
Ilmankosteus 93%
Sademäärä 0.00 tuumaa
Lumensyvyys Ei saatavilla
7:38 AM 5:03 PM
Vähenevä kupera kuu, 73% visible
METAR EFKS 240550Z AUTO 13002KT 9999 BKN003 M07/M08 Q1009

Get Severe Weather Alerts

Thanks for signing up!

Be on the lookout for a verification email in your inbox.

You'll start receiving the daily forecast at 6 AM.

×

10-Day Weather Forecast

×

Almanac

Tähtitiede

Feb. 24, 2019 Nousuaika Laskuaika
Valoisa aika
Porvarillinen hämärä
Nauttinen hämärä
Astronominen hämärä
Kuu
Näkyvän valon pituus
Päivän pituus
Tomorrow will be .
, % of the Moon is Illuminated

Tämän päivän ennätykset

Country Highs Country Lows

Community

WunderPhotos

Category 6

Welcome to Category 6. This is the collective home for Weather Underground's featured writeups by Dr. Jeff Masters (right), Bob Henson (left), Chris Burt, and other regular contributors.

Nearby

Ilmanlaatu

  Ilmanlaatu AQ Index Pollutant
Not available.

Lumensyvyys

Station Depth Korkeus

Maanjäristysaktiivisuus

Paikkakunta Distance Mag. Time & Date
Minimum magnitude displayed is 2.5.

Coastal Water Temperatures

Paikka Lämpötila

Stations

Lähimmät sääasemat

Aseman sijainti Lämpötila Tuulen hyytävyys Kastepiste Ilmankosteus Tuuli Precip. Kork Päivitetty Tyyppi